Wadesboro, NC

11:44 PM EDT on April 24, 2017 (GMT -0400)
Anson County

Weather History for KAFP - November, 2013

Change the Weather History Date:

Saturday, November 2, 2013

  Actual Average (KCLT) Record (KCLT)
Temperature  
Mean Temperature 60 °F -  
Max Temperature 72 °F 69 °F 85 °F (1961)
Min Temperature 45 °F 48 °F 27 °F (1954)
Degree Days  
Heating Degree Days 6    
Growing Degree Days 10 (Base 50)    
Moisture  
Dew Point 49 °F    
Average Humidity 72    
Maximum Humidity 97    
Minimum Humidity 28    
Precipitation  
Precipitation 0.00 in - - ()
Sea Level Pressure  
Sea Level Pressure 29.81 in    
Wind  
Wind Speed 1 mph (West)    
Max Wind Speed 14 mph    
Max Gust Speed 24 mph    
Visibility 9 miles    
Events Fog , Rain    
Averages and records for this station are not official NWS values.
T = Trace of Precipitation, MM = Missing Value Source: NWS Daily Summary

Daily Weather History Graph

Daily Weather History Graph

Search for Another Location

Airport or City:

Trip Planner

Search our weather history database for the weather conditions in past years. The results will help you decide how hot, cold, wet, or windy it might be!

Date:

Astronomy

Nov. 02, 2013 Rise Set
Actual Time 7:42 AM EDT 6:24 PM EDT
Civil Twilight 7:16 AM EDT 6:51 PM EDT
Nautical Twilight 6:46 AM EDT 7:20 PM EDT
Astronomical Twilight 6:16 AM EDT 7:50 PM EDT
Moon 6:39 AM EDT (11/2) 5:54 PM EDT (11/2)
Length of Visible Light 11h 34m
Length of Day
10h 42m
Waning Crescent, 1% of the Moon is Illuminated
Nov 2
Waning Crescent
Nov 3
New
Nov 10
First Quarter
Nov 17
Full
Nov 25
Last Quarter

Hourly Weather History & Observations

Time (EDT) Temp. Dew Point Humidity Pressure Visibility Wind Dir Wind Speed Gust Speed Precip Events Conditions
12:15 AM 60.1 °F 58.6 °F 95% 29.76 in 10.0 mi Calm Calm - N/A   Overcast
12:35 AM 60.4 °F 58.6 °F 94% 29.75 in 10.0 mi Calm Calm - N/A   Overcast
12:55 AM 60.3 °F 58.3 °F 93% 29.75 in 10.0 mi Calm Calm - N/A   Overcast
1:15 AM 60.1 °F 58.3 °F 94% 29.75 in 10.0 mi Calm Calm - N/A   Overcast
1:35 AM 60.3 °F 58.5 °F 94% 29.75 in 10.0 mi Calm Calm - N/A   Overcast
1:55 AM 60.4 °F 58.5 °F 93% 29.74 in 10.0 mi South 3.5 mph - N/A   Overcast
2:15 AM 60.4 °F 58.3 °F 93% 29.74 in 10.0 mi Calm Calm - N/A   Overcast
2:35 AM 60.4 °F 58.3 °F 93% 29.74 in 10.0 mi Calm Calm - N/A   Overcast
2:55 AM 60.4 °F 58.3 °F 93% 29.74 in 10.0 mi SSW 3.5 mph - N/A   Overcast
3:15 AM 60.4 °F 58.3 °F 93% 29.75 in 10.0 mi Calm Calm - N/A   Overcast
3:35 AM 60.4 °F 58.3 °F 93% 29.74 in 10.0 mi Calm Calm - N/A   Overcast
3:55 AM 60.3 °F 58.3 °F 93% 29.74 in 10.0 mi Calm Calm - N/A   Mostly Cloudy
4:15 AM 59.9 °F 58.1 °F 94% 29.74 in 7.0 mi Calm Calm - N/A   Mostly Cloudy
4:35 AM 59.5 °F 58.1 °F 95% 29.75 in 7.0 mi Calm Calm - N/A   Scattered Clouds
4:55 AM 59.2 °F 57.9 °F 96% 29.75 in 5.0 mi Calm Calm - N/A   Clear
5:15 AM 59.0 °F 57.6 °F 95% 29.75 in 5.0 mi Calm Calm - N/A   Clear
5:35 AM 58.6 °F 57.6 °F 96% 29.75 in 4.0 mi Calm Calm - N/A   Scattered Clouds
5:55 AM 58.5 °F 57.4 °F 96% 29.75 in 4.0 mi Calm Calm - N/A   Mostly Cloudy
6:15 AM 58.3 °F 57.2 °F 96% 29.76 in 4.0 mi Calm Calm - N/A   Scattered Clouds
6:35 AM 57.0 °F 55.9 °F 96% 29.77 in 3.0 mi Calm Calm - N/A   Clear
6:55 AM 57.6 °F 56.5 °F 96% 29.78 in 1.8 mi Calm Calm - N/A   Mist
7:15 AM 57.6 °F 56.7 °F 97% 29.78 in 0.8 mi Calm Calm - N/A   Mist
7:35 AM 57.2 °F 56.3 °F 97% 29.79 in 0.2 mi Calm Calm - N/A Fog Fog
7:55 AM 56.3 °F 55.4 °F 97% 29.79 in 0.2 mi Calm Calm - N/A Fog Fog
8:15 AM 55.9 °F 55.0 °F 97% 29.79 in 2.0 mi Calm Calm - N/A   Clear
8:35 AM 56.3 °F 55.4 °F 97% 29.81 in 7.0 mi Calm Calm - N/A   Clear
8:55 AM 56.3 °F 55.4 °F 97% 29.81 in 10.0 mi Calm Calm - N/A   Clear
9:15 AM 56.7 °F 55.8 °F 97% 29.82 in 10.0 mi Calm Calm - N/A   Clear
9:35 AM 57.2 °F 54.9 °F 92% 29.82 in 10.0 mi Calm Calm - N/A   Clear
9:55 AM 58.1 °F 54.7 °F 88% 29.83 in 10.0 mi Calm Calm - N/A   Clear
10:15 AM 59.0 °F 54.1 °F 84% 29.83 in 10.0 mi Calm Calm - N/A   Clear
10:35 AM 59.2 °F 54.7 °F 85% 29.83 in 10.0 mi Calm Calm - N/A   Clear
10:55 AM 62.1 °F 53.6 °F 74% 29.82 in 10.0 mi Calm Calm - N/A   Clear
11:15 AM 64.4 °F 50.9 °F 62% 29.83 in 10.0 mi West 3.5 mph - N/A   Clear
11:35 AM 66.4 °F 50.9 °F 57% 29.83 in 10.0 mi West 3.5 mph - N/A   Clear
11:55 AM 68.0 °F 47.1 °F 47% 29.82 in 10.0 mi WNW 5.8 mph - N/A   Clear
1:15 PM 71.4 °F 42.6 °F 35% 29.80 in 10.0 mi West 5.8 mph - N/A   Clear
1:35 PM 71.6 °F 40.5 °F 32% 29.79 in 10.0 mi WSW 6.9 mph - N/A   Clear
1:55 PM 70.7 °F 40.1 °F 33% 29.79 in 10.0 mi WNW 6.9 mph - N/A   Clear
2:15 PM 72.0 °F 38.7 °F 30% 29.78 in 10.0 mi WSW 5.8 mph - N/A   Clear
2:35 PM 71.6 °F 39.4 °F 31% 29.78 in 10.0 mi WSW 8.1 mph - N/A   Clear
2:55 PM 71.4 °F 39.7 °F 32% 29.78 in 10.0 mi WSW 4.6 mph - N/A   Clear
3:15 PM 72.5 °F 39.4 °F 30% 29.77 in 10.0 mi WSW 3.5 mph - N/A   Clear
3:35 PM 71.6 °F 40.1 °F 32% 29.77 in 10.0 mi WNW 3.5 mph - N/A   Scattered Clouds
3:55 PM 71.2 °F 39.2 °F 31% 29.77 in 10.0 mi WSW 4.6 mph - N/A   Mostly Cloudy
4:15 PM 72.5 °F 39.0 °F 30% 29.77 in 10.0 mi WNW 6.9 mph - N/A   Mostly Cloudy
4:35 PM 72.5 °F 38.5 °F 29% 29.77 in 10.0 mi NW 5.8 mph - N/A   Mostly Cloudy
4:55 PM 71.6 °F 37.8 °F 29% 29.77 in 10.0 mi West 3.5 mph - N/A   Scattered Clouds
5:15 PM 70.7 °F 35.6 °F 28% 29.78 in 10.0 mi West 6.9 mph - N/A   Clear
5:35 PM 69.6 °F 35.2 °F 28% 29.78 in 10.0 mi West 3.5 mph - N/A   Scattered Clouds
5:55 PM 68.2 °F 36.5 °F 31% 29.80 in 10.0 mi WNW 13.8 mph 24.2 mph N/A   Mostly Cloudy
6:15 PM 61.5 °F 42.8 °F 50% 29.83 in 10.0 mi WNW 9.2 mph 21.9 mph N/A Rain Light Rain
6:35 PM 61.0 °F 42.1 °F 50% 29.84 in 10.0 mi WNW 8.1 mph - N/A   Overcast
6:55 PM 59.4 °F 43.0 °F 55% 29.85 in 10.0 mi WNW 3.5 mph - N/A Rain Light Rain
7:15 PM 58.5 °F 43.9 °F 58% 29.85 in 10.0 mi NW 5.8 mph - N/A   Overcast
7:35 PM 59.2 °F 42.4 °F 54% 29.86 in 10.0 mi WNW 3.5 mph - N/A   Mostly Cloudy
7:55 PM 59.2 °F 42.6 °F 54% 29.87 in 10.0 mi Calm Calm - N/A   Mostly Cloudy
8:15 PM 58.1 °F 43.3 °F 58% 29.88 in 10.0 mi Calm Calm - N/A   Mostly Cloudy
8:35 PM 57.0 °F 43.9 °F 61% 29.89 in 10.0 mi Calm Calm - N/A   Scattered Clouds
8:55 PM 55.2 °F 44.8 °F 68% 29.89 in 10.0 mi Calm Calm - N/A   Clear
9:15 PM 54.0 °F 46.2 °F 75% 29.91 in 10.0 mi Calm Calm - N/A   Clear
9:35 PM 52.7 °F 46.8 °F 80% 29.91 in 10.0 mi Calm Calm - N/A   Clear
9:55 PM 49.6 °F 45.1 °F 84% 29.92 in 10.0 mi Calm Calm - N/A   Clear
10:15 PM 48.6 °F 44.8 °F 87% 29.93 in 10.0 mi Calm Calm - N/A   Clear
10:35 PM 48.4 °F 46.0 °F 92% 29.94 in 10.0 mi Calm Calm - N/A   Clear
10:55 PM 48.6 °F 44.2 °F 85% 29.95 in 10.0 mi Calm Calm - N/A   Clear
11:15 PM 48.0 °F 44.6 °F 88% 29.96 in 10.0 mi Calm Calm - N/A   Clear
11:35 PM 47.8 °F 44.2 °F 87% 29.97 in 10.0 mi Calm Calm - N/A   Scattered Clouds
11:55 PM 45.3 °F 43.2 °F 92% 29.97 in 10.0 mi Calm Calm - N/A   Scattered Clouds